Terug naar catalogus

STARLINK-5531

ActiefCommunicatieVLEO
NORAD 55383·PAYLOAD·🇺🇸 United States

Gelanceerd Jan 26, 2023 vanaf Cape Canaveral Space Force Station

Loading…

Volgende Passages (komende 24 uur)

TLE

VersSource: CelesTrak SupGP

Epoch: Sep 15, 2026, 01:53 UTC

1 55383C 23013BE  26258.07895833  .00023720  00000+0  85905-3 0  2580
2 55383  43.0019 299.1556 0002206 270.0869 231.7683 15.27568963    15

Volg STARLINK-5531 in realtime met AllMySat

Download on the App Store